Wind_Speed
6 7 9 10 11 12 9 6 4 4 6 8 9 8 9 13 13 15 15 17 13 8 6 6 12 7 6 9 5 17 18 13 8 4 3 6 15 21 26 33 32 29 29 30 28 28 27 26 25 24 23 23 23 22 22 21 20 19 18 18 17 17 17 17 18 18 18 16 15 15 15 15 15 15 15 15 14 14 14 14 14 14 14 15 15 15 15 15 15 15 15 16 16 16 16 16 16
11 13 13 11 11 9 5 5 5 6 7 9 9 9 11 12 14 16 15 17 15 5 2 4 11 9 6 10 6 11 14 14 12 9 7 14 16 20 29 31 31 30 30 30 29 27 25 25 26 24 24 23 23 22 21 20 20 19 19 18 17 17 17 18 19 19 18 16 15 15 15 15 15 15 15 15 14 14 14 14 14 14 15 15 15 15 16 15 15 15 16 16 16 16 16 16 16
12 15 13 10 9 7 5 4 6 7 8 9 8 10 12 12 15 15 17 19 12 5 2 1 8 9 6 8 6 6 8 11 14 12 10 16 13 17 28 29 31 30 30 30 29 28 25 26 27 25 24 23 23 22 21 20 20 19 19 18 17 17 17 19 19 18 17 16 15 15 15 15 15 15 15 15 14 14 14 14 14 14 15 15 16 16 16 16 16 16 17 17 17 17 17 17 17
11 13 12 9 6 6 5 5 7 8 9 9 7 10 12 14 13 10 17 14 1 5 1 1 4 5 5 9 5 6 9 8 11 12 8 13 14 21 29 29 30 29 30 30 29 29 25 27 28 26 25 23 23 22 21 20 20 20 18 18 18 18 18 19 18 18 17 16 15 15 15 15 15 15 15 15 14 14 14 14 14 15 15 16 16 16 17 17 17 17 17 17 17 18 17 18 18
11 13 12 10 5 4 5 5 7 8 9 8 7 11 12 12 5 8 15 4 6 9 6 2 3 2 2 9 5 4 7 8 10 12 9 15 23 27 29 30 29 27 29 29 29 27 26 29 28 27 26 24 23 22 21 20 20 20 18 19 18 18 19 19 18 17 17 16 15 15 15 15 15 15 15 15 15 14 14 14 14 15 15 16 16 16 17 17 17 17 17 18 18 18 18 18 17
13 14 12 10 6 5 5 6 8 9 11 10 10 12 14 14 8 9 12 8 3 8 7 4 6 6 0 5 9 6 5 6 7 10 12 18 28 30 30 30 27 27 28 28 28 26 27 30 28 28 26 24 23 22 22 21 21 20 19 19 19 19 19 19 18 17 16 16 16 16 16 16 15 15 15 14 14 14 14 14 14 15 15 15 15 16 17 17 18 17 18 18 18 18 19 18 17
12 10 7 8 5 5 6 8 9 9 11 13 12 12 16 14 6 5 8 10 6 7 5 3 8 11 1 7 9 9 9 8 5 9 15 21 30 31 30 29 27 28 28 29 27 26 29 31 30 28 26 25 23 23 23 21 21 20 20 19 19 19 20 19 19 17 17 17 17 16 16 16 15 15 14 14 14 14 14 13 14 14 14 15 15 16 17 17 18 18 18 18 18 18 19 18 17
12 7 3 6 5 5 7 9 10 9 11 14 15 15 13 7 6 7 7 7 7 4 3 5 8 10 3 3 5 6 10 11 10 14 20 24 30 31 29 29 30 30 29 29 27 27 32 32 30 28 26 24 22 23 23 22 22 20 20 19 19 20 20 20 19 18 17 17 17 17 16 15 15 15 15 14 14 14 13 13 13 14 14 15 15 16 16 18 18 17 17 18 18 18 19 18 16
10 6 4 6 6 6 8 9 10 11 12 14 15 17 15 6 1 5 7 7 7 10 10 6 4 6 4 4 8 6 7 11 15 17 20 25 31 32 29 29 30 31 30 30 28 30 33 32 30 28 26 24 23 24 23 22 21 20 20 20 20 20 20 19 19 18 18 17 17 17 16 15 15 15 15 14 14 14 14 14 14 14 15 15 16 16 18 19 18 18 17 18 19 19 19 18 17
6 6 5 5 6 8 8 9 9 10 13 13 13 15 19 13 5 6 7 8 9 11 13 8 5 7 5 6 9 4 6 10 14 14 16 24 27 26 26 29 31 31 31 30 29 30 31 31 30 28 26 25 25 25 24 22 22 20 20 20 21 20 20 19 19 18 18 18 17 17 16 16 16 15 15 14 14 14 14 14 14 15 15 16 17 18 19 19 18 18 18 19 21 20 19 18 17
5 5 5 5 7 7 8 8 8 10 12 11 10 9 13 8 2 8 9 9 11 12 14 11 8 8 7 4 7 3 6 8 9 10 11 17 18 13 9 12 24 30 31 30 28 28 30 30 29 27 26 26 26 25 24 22 22 21 20 21 21 20 20 19 19 19 18 18 17 16 16 16 16 15 15 15 15 15 15 14 14 15 15 16 17 18 19 19 18 18 18 20 21 20 20 19 18
5 5 5 6 6 7 8 10 10 11 13 10 8 11 11 8 3 6 9 8 9 12 15 13 6 5 8 1 5 5 9 7 6 8 9 17 19 14 3 5 15 26 29 29 28 28 29 28 27 26 25 26 27 25 23 21 21 21 21 21 21 20 20 20 19 19 18 18 17 16 16 16 16 15 15 15 15 15 14 14 14 15 16 17 18 18 18 19 18 18 17 18 19 20 20 19 18
5 5 6 7 7 9 9 10 11 12 11 7 10 13 12 11 7 6 9 8 8 10 12 13 7 8 6 1 4 5 7 5 5 8 11 17 17 14 7 11 21 26 29 30 29 27 26 27 27 25 25 26 26 23 22 21 22 22 22 21 20 20 20 20 19 19 19 17 16 16 16 16 16 15 15 15 14 14 14 14 14 15 16 17 18 18 18 18 18 17 15 15 17 19 19 19 18
5 5 6 7 8 9 10 9 9 11 7 6 10 12 10 8 7 6 7 10 9 10 11 12 7 5 5 2 3 3 6 5 6 9 12 13 13 10 9 17 28 29 29 30 31 28 26 26 25 25 26 26 25 23 22 22 22 22 21 21 20 20 20 20 19 19 18 17 16 16 16 16 15 15 14 14 14 14 14 14 14 15 16 17 16 16 16 16 15 14 14 14 16 18 19 19 18
5 5 6 6 7 8 9 8 10 10 4 11 12 11 9 6 8 7 8 10 10 11 13 11 4 3 7 4 2 3 5 6 7 10 12 11 12 12 12 20 28 28 28 29 31 29 27 27 26 25 26 25 24 22 22 22 22 22 21 21 20 20 20 20 19 18 18 17 16 16 16 15 14 14 14 14 13 13 13 14 14 14 15 15 14 14 14 13 13 13 13 15 17 19 20 19 18
5 4 5 6 8 8 7 7 12 11 6 11 11 10 8 6 9 9 9 10 9 11 13 9 4 6 4 3 5 6 8 7 6 9 11 12 13 14 17 22 25 26 28 30 33 31 29 29 27 26 25 24 24 23 23 22 21 21 21 20 20 19 20 20 19 18 18 17 16 16 15 15 14 14 14 13 13 12 12 13 13 13 13 13 13 13 13 13 13 14 15 16 18 21 22 20 18
5 4 6 6 8 8 7 7 9 9 10 11 8 10 9 7 7 8 9 9 9 11 12 10 9 10 5 7 10 9 11 11 10 10 10 13 14 15 17 18 21 23 28 32 31 31 30 30 27 26 26 24 24 24 24 22 20 21 21 20 19 19 19 19 19 18 17 16 16 16 15 14 14 14 14 14 12 11 12 12 13 12 11 12 12 13 14 14 15 15 15 16 18 20 19 19 18
4 4 6 6 8 7 7 8 9 10 11 12 7 7 7 8 6 8 9 9 9 10 11 11 13 10 6 3 9 11 12 11 13 12 11 12 13 13 16 17 19 20 26 29 28 31 31 30 28 26 26 24 24 24 23 22 21 21 21 20 19 19 19 19 19 18 17 16 16 15 13 13 14 13 14 14 12 10 11 11 12 12 10 11 11 13 14 15 14 14 14 14 15 14 10 10 13
5 5 6 7 8 8 9 10 11 11 10 11 11 7 6 6 3 6 7 9 9 10 10 10 15 8 7 8 7 3 12 12 12 12 11 13 12 11 13 15 19 22 27 28 28 33 31 30 29 27 27 25 25 23 23 23 21 21 20 20 20 19 19 18 17 16 15 15 15 14 14 13 13 13 13 13 12 10 10 11 11 11 10 10 11 13 14 14 13 11 10 10 9 7 4 3 7
6 5 5 7 10 12 10 12 12 11 12 10 10 10 7 3 3 2 4 9 10 10 10 9 14 11 3 4 11 10 5 9 12 12 11 15 15 12 11 11 17 25 28 30 32 33 31 32 31 29 29 26 24 22 22 22 20 20 19 18 19 19 18 16 16 15 14 13 12 14 15 14 13 13 12 12 12 11 10 10 10 10 10 10 11 14 14 12 10 8 7 6 5 3 1 3 7
4 4 7 10 12 13 11 12 13 12 13 11 8 10 8 3 4 2 3 7 10 9 11 9 11 13 7 3 4 8 10 8 10 12 12 15 16 14 11 14 19 26 26 29 32 32 31 33 32 31 30 26 24 23 22 21 21 20 18 18 18 19 17 15 15 14 14 13 11 13 15 12 11 13 12 11 11 11 10 9 10 9 8 10 11 12 10 8 7 4 2 3 3 2 2 4 7
5 6 11 12 12 12 12 13 12 11 11 12 10 9 6 1 4 4 6 8 8 8 9 8 10 9 7 7 5 3 7 13 10 11 10 12 13 11 7 11 17 23 24 25 27 30 32 32 32 32 29 26 25 24 22 21 21 19 19 19 17 16 16 15 14 14 14 12 12 13 13 10 10 12 10 11 10 10 10 8 10 9 7 8 8 8 6 3 4 2 3 0 2 2 4 6 6
6 8 10 12 12 11 12 12 12 11 10 10 8 3 2 7 7 5 8 11 10 9 10 10 8 5 4 6 6 5 5 12 13 10 9 10 13 9 6 10 16 20 22 21 21 26 32 32 32 31 28 28 26 23 23 22 21 21 20 19 18 16 15 15 14 14 12 11 12 12 11 9 12 13 10 11 10 9 10 8 10 10 9 8 6 6 6 4 2 3 3 1 3 5 6 7 6
10 9 10 12 12 11 11 11 11 11 10 10 6 3 5 12 9 5 8 10 10 11 11 9 5 1 4 4 5 8 5 8 12 9 12 12 16 11 7 14 19 20 20 17 18 22 29 33 30 28 28 29 26 23 23 22 21 22 21 19 19 18 16 16 16 14 11 11 12 9 10 9 10 12 10 10 9 8 10 9 10 9 10 10 6 6 5 3 2 2 1 1 5 5 5 7 7
10 9 10 10 11 10 10 11 11 10 9 9 8 5 9 12 8 7 10 10 10 11 6 3 2 2 5 5 7 8 3 5 10 10 16 15 20 18 14 19 19 16 17 17 19 23 28 31 28 28 29 27 26 24 23 22 23 22 20 18 18 18 17 16 16 15 12 11 11 7 9 9 8 9 9 10 8 6 7 9 9 6 9 11 7 5 4 1 2 3 3 3 5 5 6 6 5
8 10 11 11 11 10 8 9 10 8 6 7 9 10 11 10 7 7 8 5 5 6 2 2 4 5 6 6 8 6 4 3 12 11 18 18 22 21 19 26 20 11 16 17 19 25 26 27 28 27 27 27 25 23 21 22 23 21 20 17 16 16 17 16 15 15 13 11 12 10 9 9 8 9 9 11 10 4 2 6 8 6 7 9 7 4 3 2 1 1 2 3 4 4 5 5 4
11 13 12 12 12 9 8 10 9 7 6 7 9 10 10 7 5 5 3 2 4 5 5 6 7 7 8 7 8 2 5 8 14 13 18 18 21 20 19 29 24 8 13 17 19 24 23 22 26 24 25 27 23 21 23 22 21 20 19 16 16 17 17 17 15 15 14 11 10 9 9 9 8 10 8 8 10 6 3 4 5 7 8 7 6 5 3 1 0 1 1 3 4 4 4 4 4
13 12 12 13 11 8 10 10 8 7 5 4 7 10 12 8 7 7 3 2 2 2 5 8 9 9 9 7 7 1 4 11 15 14 15 13 16 17 18 30 30 11 6 15 21 23 21 22 23 22 25 25 21 23 23 21 20 18 18 18 17 18 16 16 15 15 15 11 8 8 8 7 6 9 8 6 8 6 6 5 4 6 8 6 4 4 3 1 1 1 2 3 3 3 4 3 4
12 12 12 12 12 10 10 9 8 8 4 3 6 10 9 7 6 8 3 1 2 4 6 8 8 9 8 5 5 2 4 10 13 12 14 17 16 14 18 33 35 20 8 9 19 22 20 22 22 22 23 22 24 25 22 21 21 19 19 19 17 16 15 16 16 16 15 12 9 8 7 7 5 7 7 5 5 3 6 7 4 4 6 6 5 4 3 2 2 2 2 1 1 1 3 3 3
12 9 8 8 10 9 5 5 7 8 3 3 5 7 4 2 3 2 1 0 3 5 7 8 7 7 6 4 4 1 4 10 9 11 16 22 22 16 20 36 38 26 14 8 16 23 22 21 20 21 21 22 25 23 22 21 20 20 21 19 16 15 15 17 18 16 14 12 11 9 7 8 6 4 5 6 3 0 5 8 5 5 5 6 8 6 3 3 2 2 2 1 1 2 0 3 3
8 6 5 5 7 4 6 5 6 7 4 2 6 6 4 7 5 1 3 0 3 6 8 7 6 5 5 5 3 2 4 7 10 14 19 23 26 22 22 37 40 26 17 13 17 23 22 20 19 20 20 22 23 20 21 20 19 21 20 17 14 14 15 16 16 15 14 12 11 10 7 6 6 3 2 3 4 1 3 7 7 7 7 4 6 7 5 4 3 3 3 2 2 3 2 0 2
5 4 5 5 4 4 5 3 5 8 6 6 7 4 3 8 6 2 4 1 2 6 9 7 5 5 5 5 4 2 3 9 11 15 19 20 22 23 21 31 40 34 25 21 20 20 21 21 19 20 21 22 21 20 21 19 19 20 19 16 13 14 16 15 15 15 15 14 11 10 6 6 5 3 2 1 3 1 1 4 6 7 7 4 3 4 4 5 5 4 3 3 3 4 3 2 1
4 5 7 5 3 3 3 2 6 7 5 7 7 5 3 5 5 2 4 2 4 6 8 7 5 5 4 4 3 3 6 10 12 15 19 21 20 23 20 22 32 37 36 32 27 21 20 22 21 20 22 22 20 20 21 19 19 19 18 17 14 14 15 15 15 13 13 13 12 11 6 5 5 3 3 3 4 3 2 4 6 6 7 5 4 3 4 5 5 4 3 4 4 5 4 2 1
4 5 6 6 3 2 3 0 3 6 5 6 6 6 6 6 6 1 3 3 4 6 7 6 5 3 1 3 4 6 9 10 11 14 19 23 22 23 22 21 23 27 35 38 32 25 21 23 23 20 21 22 21 21 21 20 19 19 17 16 14 14 13 13 14 13 11 12 13 11 6 5 5 5 3 5 6 7 6 6 7 7 6 5 5 5 6 5 4 2 3 4 4 5 4 2 1
9 6 6 7 1 2 4 2 1 4 6 6 5 5 6 7 6 3 1 1 2 6 6 5 5 3 2 3 7 8 11 11 11 15 20 23 23 22 21 24 24 21 28 33 29 25 24 24 23 20 21 21 21 21 21 19 18 18 16 14 13 13 13 11 12 13 12 11 10 7 6 6 4 4 5 3 8 9 9 8 7 7 6 5 5 3 4 5 6 5 3 4 6 5 5 4 1
14 10 9 9 6 6 4 2 5 5 6 6 5 5 6 6 5 3 3 2 3 6 8 7 6 5 2 5 8 9 11 11 12 18 23 23 25 25 21 23 25 22 24 26 24 23 24 25 23 21 21 21 21 21 20 18 18 16 14 13 10 12 13 10 12 13 10 8 8 8 7 4 4 5 5 4 8 9 8 6 6 7 6 6 7 5 4 4 5 6 5 5 6 5 6 6 3
13 11 9 8 7 4 5 3 7 4 4 4 4 5 5 6 5 4 4 4 4 4 6 8 6 4 5 9 10 11 11 11 13 18 23 24 25 24 21 21 22 22 22 22 22 23 24 24 23 22 21 21 20 20 19 17 17 15 14 12 9 11 13 11 13 11 8 8 8 10 7 2 6 5 1 4 8 9 7 4 3 5 4 6 7 5 5 4 4 5 4 4 6 7 5 4 2
11 9 7 6 6 5 5 2 3 2 4 2 2 3 3 5 5 4 4 3 1 0 3 6 4 5 8 10 11 11 11 11 12 14 19 24 24 22 21 20 20 21 21 21 22 23 23 23 23 23 22 20 19 18 18 17 16 16 15 13 10 12 12 11 13 8 8 11 7 8 8 2 4 4 2 5 7 7 6 2 1 4 3 3 2 3 4 3 2 3 3 3 6 6 4 3 2
10 7 5 4 4 6 5 4 3 3 4 0 0 1 3 4 4 2 2 1 2 1 3 6 4 9 8 9 11 11 12 12 11 12 16 21 22 23 22 19 19 19 18 21 23 22 23 22 22 22 21 19 18 17 17 16 15 16 16 13 12 12 10 9 12 8 9 13 7 6 6 0 2 4 6 8 9 7 5 3 2 3 4 5 2 0 3 3 2 3 5 4 3 4 2 2 2
7 5 4 3 1 1 2 3 2 3 3 3 3 3 2 2 3 2 3 2 3 3 6 5 3 8 8 8 10 12 14 13 12 12 14 17 19 21 20 16 15 14 13 18 22 22 22 22 21 22 21 18 17 16 16 15 15 15 15 12 11 11 10 10 11 9 10 12 7 6 6 1 4 2 4 7 10 8 5 4 5 4 5 4 3 2 2 4 6 5 6 6 4 3 2 2 2
5 3 3 5 3 4 4 3 1 2 2 3 5 4 2 2 3 3 2 2 4 5 5 2 4 6 8 9 10 13 15 14 14 13 13 16 17 19 18 15 15 14 12 14 18 20 21 20 20 21 19 18 17 16 16 15 15 16 14 12 10 10 11 12 10 8 9 10 9 8 7 2 4 1 3 4 7 8 7 5 6 6 5 4 3 4 4 6 8 7 8 9 8 6 4 2 3
5 0 2 8 9 6 2 5 4 1 1 2 4 2 2 2 3 2 1 1 4 2 1 3 6 5 7 10 10 13 14 14 15 13 13 14 15 18 18 17 19 16 12 13 16 19 20 19 20 20 18 18 17 16 16 15 15 16 14 11 10 11 10 11 11 9 8 10 12 10 9 4 3 1 4 4 5 6 7 5 7 7 5 6 5 5 7 8 7 8 9 11 12 10 9 7 5
5 4 7 10 10 9 6 1 1 2 2 5 4 1 0 2 3 2 2 3 2 2 2 3 5 5 6 8 8 11 13 13 14 14 14 13 13 16 16 17 19 16 14 16 15 18 20 19 20 19 18 18 17 16 15 14 15 15 12 10 11 11 10 8 11 9 7 10 13 12 10 7 3 1 3 5 3 3 5 4 7 7 3 5 6 7 8 9 8 7 6 4 5 7 8 6 3
5 8 11 12 9 9 9 5 3 3 2 5 4 2 1 1 1 1 2 2 1 3 4 3 2 4 6 7 6 9 12 12 13 13 16 14 12 15 16 16 19 18 19 18 15 17 20 19 19 19 17 17 16 15 14 14 16 14 11 11 11 10 8 7 8 7 7 11 14 12 10 6 5 3 2 4 4 5 6 4 6 6 4 4 6 7 8 9 10 10 8 7 6 1 1 2 3
7 11 12 11 9 9 8 5 1 0 1 3 4 3 1 1 1 1 2 2 3 4 3 1 2 5 5 5 5 7 11 13 12 14 15 13 13 17 18 18 21 22 20 17 16 17 18 18 19 18 16 17 17 16 14 13 14 13 11 11 11 9 7 7 6 6 8 10 11 10 9 8 7 5 4 4 5 6 6 4 5 6 5 5 4 7 8 8 10 12 9 8 9 6 4 4 4
8 11 12 10 8 7 4 3 2 1 1 1 2 3 1 2 2 1 1 2 4 4 2 2 3 2 1 4 6 8 11 12 11 13 13 12 14 18 20 18 21 22 18 16 16 15 16 18 18 17 16 17 17 17 14 13 12 11 10 10 10 9 9 8 6 7 7 7 9 8 8 9 9 7 5 5 4 4 3 4 4 6 6 5 4 5 6 6 7 8 8 7 7 6 6 6 5
7 9 9 8 7 4 1 2 2 2 2 3 4 6 4 2 4 2 1 3 4 5 4 3 1 1 3 9 10 9 10 10 11 12 11 11 14 18 18 16 18 19 16 14 16 15 17 18 16 17 17 16 17 16 14 12 11 11 10 8 8 9 9 9 8 7 6 7 11 10 7 7 7 9 9 5 4 5 3 3 3 4 6 7 5 5 4 2 3 5 7 7 6 7 7 6 7
5 6 7 7 5 3 1 2 1 1 2 2 5 8 5 4 4 3 3 5 5 6 7 5 2 6 10 12 11 11 12 11 11 10 9 10 12 15 16 15 15 17 14 13 15 16 16 15 16 18 17 16 18 17 14 12 11 11 10 10 8 7 8 10 9 9 7 7 12 12 10 8 5 8 11 7 5 6 5 4 2 3 2 5 5 4 4 3 4 5 5 6 6 7 7 7 7
4 5 6 5 3 2 1 1 2 1 2 2 5 8 7 5 5 6 5 6 6 7 9 9 7 10 12 11 9 10 11 11 10 9 8 7 8 12 15 14 15 15 14 13 13 14 14 14 16 17 15 15 17 16 14 13 11 10 11 12 10 7 8 9 9 10 8 7 10 13 12 12 8 7 8 8 7 8 7 7 6 5 1 1 3 4 5 4 4 5 5 5 6 7 7 8 9
6 5 5 4 3 4 4 3 2 2 3 5 5 6 4 3 5 6 4 5 7 9 9 10 11 10 10 10 9 8 10 10 8 8 9 7 8 11 13 14 14 14 14 14 12 12 13 13 14 15 13 13 15 15 13 12 11 10 12 14 12 8 8 9 9 9 9 8 8 12 12 12 10 8 9 11 10 8 9 9 7 5 4 3 4 3 4 4 2 4 6 6 5 6 6 7 8
5 5 3 3 3 4 5 3 2 2 4 7 6 3 2 2 5 4 2 4 7 9 8 9 11 10 8 8 7 7 8 10 10 10 10 10 10 12 13 13 13 13 14 14 13 12 12 12 12 13 13 13 14 14 12 11 10 12 14 14 13 10 8 9 9 8 8 9 9 10 12 13 12 10 10 10 9 7 9 10 7 5 5 5 6 5 4 6 5 4 5 5 6 7 7 7 9
2 3 2 3 2 1 2 3 1 3 4 7 6 4 4 5 8 8 3 4 7 9 8 8 8 9 8 7 6 6 5 6 8 10 10 10 10 11 12 12 12 13 13 12 12 12 12 13 12 12 12 13 15 14 13 11 10 11 15 15 14 11 8 9 10 8 8 8 8 9 10 12 12 11 10 8 7 6 8 9 7 6 8 8 9 7 5 6 7 5 3 4 6 7 7 8 9
1 2 2 5 3 2 0 3 1 3 5 3 3 4 4 3 8 9 6 5 8 9 8 7 6 5 6 7 7 8 6 4 6 8 9 8 9 10 11 11 11 12 12 11 12 11 12 14 14 12 12 14 15 14 13 12 10 12 15 15 14 13 10 9 10 10 9 8 8 7 7 9 10 9 9 7 6 5 5 7 6 4 6 7 8 8 6 6 7 7 5 4 6 6 6 7 7
2 4 6 7 3 2 1 2 0 3 5 3 4 7 5 2 4 7 8 7 7 8 7 7 6 4 4 5 5 8 9 8 7 8 8 7 8 10 11 11 12 12 11 12 12 11 11 12 14 13 13 14 14 13 12 11 12 15 16 15 14 13 11 10 11 11 10 9 9 7 6 7 7 6 7 5 5 5 5 6 7 6 5 6 6 8 8 8 8 9 9 8 8 8 7 8 8
2 5 7 5 2 1 2 2 2 2 4 3 4 7 6 4 4 6 9 8 6 7 6 7 7 6 5 4 4 5 7 8 8 8 7 7 8 10 10 11 12 12 11 12 11 11 10 10 11 12 12 12 11 11 11 11 14 17 17 17 16 14 12 11 12 13 11 10 9 7 6 6 5 6 7 6 5 6 6 6 7 9 8 8 7 8 10 10 10 10 10 10 10 10 10 10 11
2 3 5 4 2 3 5 3 1 1 2 3 4 4 5 5 4 5 8 9 8 8 6 5 6 6 5 4 4 4 4 6 6 7 7 7 8 10 12 12 12 10 10 11 10 9 9 9 10 11 11 10 9 10 11 12 15 17 18 17 16 15 14 12 12 13 11 9 8 7 7 8 7 7 8 8 7 7 7 6 7 8 8 8 9 9 9 11 12 12 12 12 11 11 12 13 13
5 4 5 5 3 4 4 2 1 1 1 3 4 3 3 2 2 4 8 9 9 10 8 6 6 8 6 4 4 4 4 6 6 6 7 7 8 10 11 12 11 10 11 10 10 10 9 8 9 10 9 10 10 10 10 12 14 16 16 16 15 14 13 11 12 11 8 7 6 5 5 7 7 7 8 9 9 8 8 8 9 9 8 8 9 9 10 11 11 11 11 12 12 12 14 14 14
5 4 4 6 5 3 2 2 3 2 2 2 3 4 2 1 1 4 6 6 8 10 9 7 8 11 8 5 6 5 5 6 5 6 6 6 8 10 9 11 12 12 11 9 9 10 8 7 8 9 8 9 10 11 10 11 13 14 13 13 13 11 10 11 10 6 5 6 7 5 4 5 7 8 8 8 8 8 7 8 8 10 9 8 7 8 10 10 10 10 10 10 11 13 13 13 11
Wind_Direction
276 289 274 270 263 264 258 228 238 221 227 249 248 249 247 242 247 257 261 264 259 252 256 306 315 345 349 296 57 62 43 34 30 45 86 123 132 129 126 130 133 134 136 141 144 145 144 143 141 141 139 138 138 138 138 136 134 130 128 126 124 123 121 118 115 113 111 110 107 104 101 100 98 96 94 91 89 85 82 80 78 76 74 71 69 68 67 66 64 62 62 61 58 55 54 54 52
284 287 269 255 255 257 250 210 241 241 225 242 243 244 251 252 250 247 247 257 258 259 332 333 301 297 324 320 3 56 52 55 67 79 104 124 120 123 132 131 133 136 138 142 144 144 144 145 143 143 140 139 140 139 138 136 134 130 128 127 125 124 122 119 116 114 112 110 108 105 103 101 100 97 94 92 90 87 83 80 78 76 73 71 69 68 68 66 65 63 62 60 58 57 56 56 55
286 291 272 237 237 241 255 225 233 248 241 246 243 236 235 241 248 259 253 243 254 270 244 309 305 310 326 310 332 35 73 77 89 100 118 129 127 135 136 132 135 138 140 143 145 144 145 147 146 144 141 140 141 140 139 136 134 131 129 128 126 125 122 120 117 115 113 112 109 106 106 104 101 97 95 94 91 88 84 82 79 76 73 72 70 69 68 67 66 65 64 61 60 60 60 61 61
285 287 275 245 233 219 243 236 232 245 248 252 258 248 238 234 227 284 284 245 214 31 78 62 302 317 321 292 310 62 90 92 101 110 135 142 140 143 138 134 136 137 141 144 146 145 146 149 147 144 142 141 141 140 139 137 134 131 130 129 127 125 123 121 118 116 114 112 111 109 108 105 102 99 97 95 91 88 85 82 79 78 76 74 72 71 70 70 68 67 65 63 63 63 64 65 68
279 274 266 254 248 224 238 239 239 240 246 254 265 265 266 273 271 339 324 306 79 56 45 37 263 249 329 316 338 81 89 89 102 110 129 135 139 144 140 136 136 139 142 144 146 146 149 151 147 144 143 143 141 140 140 138 135 132 131 129 127 126 124 122 119 116 115 114 113 112 109 106 103 100 98 95 93 90 86 83 81 80 78 76 74 73 72 72 70 68 67 66 66 66 67 70 73
270 264 251 241 263 290 263 241 242 239 246 250 261 277 281 298 345 352 341 346 36 77 43 342 305 305 67 41 46 61 71 98 107 109 124 134 142 145 142 139 139 143 144 145 146 146 151 151 147 145 144 142 141 141 140 138 136 133 131 128 128 127 124 121 118 117 116 115 115 112 110 107 104 102 99 97 95 92 89 86 84 82 80 78 76 75 74 73 72 71 70 69 68 69 73 76 77
262 260 235 222 251 275 258 250 250 251 249 249 252 262 275 293 335 322 322 321 325 73 70 313 292 295 298 98 71 57 71 106 116 117 134 142 146 146 145 143 142 145 147 147 146 147 152 150 148 146 144 142 142 142 141 138 136 132 131 129 129 128 124 120 118 118 117 116 114 111 109 107 105 103 100 98 96 92 90 86 85 84 81 80 78 78 77 76 75 74 72 72 71 74 78 79 76
255 257 243 230 242 231 240 253 252 261 262 263 265 258 268 309 9 333 306 277 297 335 235 221 242 260 271 104 93 73 80 99 111 126 140 147 149 149 150 149 147 149 149 146 145 149 152 151 149 146 144 142 142 143 140 138 135 132 132 131 130 128 124 120 118 118 118 116 113 111 110 108 106 103 101 99 96 93 90 88 86 84 84 83 82 81 80 80 78 76 75 74 75 79 86 86 80
242 239 253 246 249 246 246 253 251 257 259 266 275 275 277 275 36 330 304 269 274 288 273 268 254 247 269 87 102 94 81 101 115 130 145 153 155 154 155 153 151 150 147 144 144 149 151 150 148 144 142 142 144 143 140 138 135 133 133 131 130 128 123 120 120 119 119 117 115 113 111 108 107 104 102 100 97 95 92 90 88 86 86 85 85 84 84 83 81 79 78 77 79 84 89 88 83
236 227 247 257 255 261 257 256 260 257 253 254 257 270 276 268 252 255 260 281 289 284 276 274 262 259 284 82 102 89 77 106 121 134 151 158 161 158 158 156 153 148 142 142 144 146 148 150 147 143 142 144 144 142 139 138 135 134 133 132 130 126 123 120 120 120 119 119 117 115 112 110 108 105 103 101 99 96 94 92 89 88 87 87 88 88 88 86 84 82 82 81 81 84 85 83 82
247 225 232 263 259 262 266 266 269 268 267 262 258 278 287 282 251 260 257 271 293 293 280 267 249 254 263 97 94 105 106 105 119 133 151 165 169 160 151 147 147 142 137 138 141 144 147 148 145 143 144 144 143 141 140 137 136 135 134 133 129 125 123 121 121 121 120 119 118 114 112 110 108 107 105 103 101 98 96 93 91 91 91 92 93 92 91 89 88 87 85 83 80 81 82 83 82
261 252 231 245 257 263 271 279 284 291 297 301 341 4 345 352 20 301 292 281 302 299 286 280 291 329 281 219 99 134 121 100 114 130 158 170 173 173 170 58 118 131 135 136 137 142 144 144 143 144 144 143 143 140 138 136 136 135 135 132 127 125 123 123 122 122 120 118 117 114 114 112 111 109 107 105 103 101 98 96 96 96 96 96 97 95 94 92 90 88 85 80 79 82 83 84 84
250 267 259 255 268 274 279 284 288 294 299 324 12 15 5 1 358 338 321 305 303 287 281 279 306 12 318 291 117 145 115 107 142 146 162 167 166 168 155 120 127 130 133 136 138 141 141 142 142 144 144 144 143 139 137 137 137 136 134 130 126 125 125 125 123 123 121 119 118 117 116 114 113 111 109 108 105 105 102 102 101 100 101 99 100 98 97 95 93 90 85 81 82 85 86 88 87
270 274 278 279 280 282 286 277 283 283 294 17 20 8 10 5 347 345 331 311 296 284 287 284 304 3 289 264 136 147 110 129 167 155 147 157 156 129 101 129 140 138 137 136 139 141 140 142 142 144 146 144 141 138 138 138 138 137 133 130 127 127 127 126 124 123 121 122 122 119 120 117 117 115 114 112 109 108 106 107 105 105 105 103 103 102 100 98 95 92 88 86 86 88 90 90 86
292 293 286 280 280 278 275 273 301 294 334 24 12 3 0 353 347 352 356 339 312 298 294 280 278 288 263 242 165 153 122 131 162 156 138 151 153 126 116 139 145 143 140 138 140 141 142 143 142 145 145 143 140 138 139 139 139 137 133 129 128 129 129 127 125 123 123 124 123 122 122 120 119 118 118 116 112 110 111 112 110 110 108 105 104 103 102 100 96 93 91 91 90 90 89 87 82
269 290 290 273 274 270 279 302 319 308 341 10 19 15 338 341 4 5 8 351 323 309 303 296 302 309 307 119 138 161 157 144 157 153 136 138 127 124 138 147 149 145 144 144 143 143 144 144 143 145 145 142 140 138 139 138 138 135 131 129 129 131 129 127 125 124 125 124 124 124 123 122 121 121 121 118 115 115 118 117 114 115 113 108 105 102 101 99 98 95 94 94 94 92 86 82 78
275 266 268 269 273 277 307 327 320 314 325 333 22 34 335 323 358 4 356 335 327 316 305 315 323 322 353 126 148 166 163 149 156 148 130 130 114 122 144 154 155 151 152 150 145 145 145 143 143 147 145 141 139 137 138 137 137 134 130 129 129 130 129 127 126 125 126 125 124 121 120 120 118 122 124 122 120 120 121 120 117 117 117 113 106 103 100 98 99 99 99 100 100 96 86 78 70
282 264 261 269 279 299 333 328 310 306 312 314 338 33 352 315 335 5 349 322 332 317 296 302 299 312 13 117 160 157 157 151 162 154 136 138 125 138 162 169 163 157 158 154 148 146 144 143 146 148 145 142 139 136 137 138 137 133 132 132 131 131 130 128 127 127 127 126 122 120 124 123 121 126 129 125 121 122 124 122 118 118 119 116 109 104 102 102 103 103 104 108 110 104 91 79 64
247 259 267 276 290 322 339 316 306 301 303 309 310 334 347 327 349 8 332 305 312 301 288 292 284 292 24 330 302 174 158 158 172 165 149 148 144 164 184 179 166 162 161 157 151 148 146 145 147 149 145 142 139 137 140 140 137 135 135 134 134 133 130 130 130 131 134 129 125 129 131 126 126 132 135 131 126 127 129 125 121 119 118 115 112 110 108 107 106 108 110 114 124 125 116 82 62
251 273 273 288 307 323 324 306 310 314 308 306 301 305 319 21 67 346 295 291 287 278 278 283 283 290 15 316 308 310 238 178 174 171 165 154 149 170 203 210 175 165 164 158 152 150 149 147 148 149 145 142 140 140 141 140 139 137 135 134 136 134 133 136 137 141 146 137 133 138 133 131 136 137 140 138 131 130 133 134 125 117 118 117 119 118 114 109 101 99 109 118 125 125 77 60 68
286 313 288 292 304 307 311 310 321 332 321 313 305 298 296 100 103 256 261 280 271 261 261 252 271 291 325 333 324 320 295 252 190 171 179 165 149 157 197 224 184 165 163 155 151 152 148 147 148 147 144 143 141 141 143 142 141 137 135 136 136 138 141 147 148 147 145 136 134 136 132 132 137 138 143 141 132 134 140 138 123 114 119 121 120 121 118 106 93 83 89 107 99 35 6 78 87
320 292 288 292 299 303 314 320 326 335 328 323 325 325 319 196 168 216 234 254 259 265 262 251 268 288 321 325 324 319 294 274 225 172 177 163 139 137 172 209 180 159 155 152 153 150 146 146 146 147 145 143 142 143 144 143 141 138 138 139 140 145 150 152 148 140 137 138 138 134 132 128 126 133 147 149 140 136 143 143 136 133 129 131 129 133 151 131 104 165 234 359 73 80 87 96 95
305 291 295 295 302 305 313 319 322 322 311 307 310 7 347 269 253 232 237 249 256 266 270 268 273 298 323 315 304 273 270 268 238 172 149 133 113 112 141 154 148 146 148 152 153 145 143 145 146 147 143 142 143 143 145 146 143 140 143 144 145 148 151 150 142 136 140 145 137 132 139 143 135 136 150 160 155 146 152 155 158 159 145 147 156 160 192 212 142 156 223 219 98 99 96 89 81
293 294 295 296 303 305 315 320 320 318 309 305 296 172 206 255 262 240 239 252 254 254 262 267 259 322 304 290 288 271 276 271 240 159 131 128 115 119 136 126 131 140 143 148 146 139 142 145 148 145 142 143 143 145 149 149 143 142 146 145 147 152 153 148 138 138 139 128 127 136 144 145 140 141 148 159 163 169 172 159 162 175 159 151 164 189 209 207 166 119 81 95 104 97 88 84 77
289 292 296 301 305 310 324 320 315 317 314 314 305 268 252 260 267 255 249 254 257 252 247 279 307 311 280 270 269 268 324 288 236 152 131 139 128 130 133 120 123 132 132 141 141 138 144 146 147 143 143 145 144 151 154 145 140 142 145 144 152 157 150 140 134 134 129 117 127 141 140 140 145 143 142 145 147 172 182 157 160 186 172 157 156 197 216 170 201 175 146 87 95 98 94 92 78
295 296 300 301 302 312 322 312 314 319 312 305 291 276 268 268 273 265 256 261 297 297 301 332 291 275 271 261 258 266 55 247 230 156 132 135 125 127 129 119 118 118 125 138 139 142 150 148 146 146 145 145 149 153 146 138 139 141 144 147 151 144 131 127 127 129 127 131 144 144 140 149 155 149 149 146 138 143 161 156 170 186 168 155 152 176 201 182 251 202 161 82 82 87 92 102 99
287 290 293 294 299 314 313 303 311 308 295 294 287 278 276 270 253 248 235 103 40 347 321 294 279 270 266 258 259 261 100 217 219 156 134 131 123 131 135 125 127 127 121 138 146 147 153 148 146 147 142 146 150 142 133 134 138 140 142 141 139 133 127 125 126 127 125 132 139 130 137 144 144 151 162 150 142 153 160 164 189 183 159 142 152 177 194 206 279 349 25 71 78 77 85 99 109
287 295 295 294 299 308 303 297 305 299 292 311 298 284 275 258 237 242 232 106 105 265 275 276 275 271 262 254 259 158 118 220 206 156 135 124 118 131 135 130 139 158 132 144 153 151 148 145 147 143 142 147 141 130 131 137 138 138 133 128 130 132 133 130 125 122 121 125 112 94 119 120 117 153 163 133 137 162 162 170 211 183 161 140 142 171 181 278 338 322 358 54 59 72 94 89 97
296 301 300 305 304 296 295 295 290 282 291 8 316 285 263 244 252 256 235 122 243 250 260 263 266 268 264 256 257 118 129 220 201 151 125 116 115 127 125 124 135 155 172 157 154 152 144 144 147 143 144 141 131 133 139 141 140 134 125 124 130 133 134 129 123 116 113 121 115 102 116 106 102 162 176 146 133 163 164 182 221 194 175 163 165 166 174 225 280 301 320 6 18 65 103 98 95
301 309 315 319 302 297 329 329 296 284 308 20 307 285 284 326 324 297 98 76 266 266 258 255 259 263 273 277 272 120 175 207 184 138 128 126 131 138 124 117 123 139 155 158 151 150 144 143 144 142 142 133 131 139 142 141 137 128 127 131 137 139 129 117 115 115 114 124 129 123 114 105 112 147 173 177 184 121 162 182 191 198 203 170 170 176 180 218 263 285 292 305 311 319 84 130 125
297 310 310 281 276 317 29 14 313 289 282 273 267 275 329 338 334 121 121 147 273 278 267 260 262 266 289 292 279 262 198 171 148 144 142 137 138 140 130 122 122 130 143 145 147 147 143 141 140 138 136 131 135 140 137 137 130 126 132 140 145 142 128 115 118 125 127 131 130 128 118 110 129 142 117 189 227 62 131 179 179 203 218 176 169 184 193 213 237 260 288 302 300 305 328 83 151
273 278 273 264 274 327 5 345 284 278 257 223 247 281 328 317 315 114 124 191 255 272 274 271 268 278 296 292 276 242 156 135 145 152 142 137 136 136 138 136 138 148 154 147 148 149 143 140 139 139 136 133 137 137 136 136 132 131 136 142 145 138 130 129 137 139 136 136 130 127 127 108 125 195 180 234 239 119 110 185 182 195 193 184 182 167 181 223 229 220 265 289 289 294 327 355 204
281 257 260 272 256 263 299 253 232 260 262 214 232 284 303 300 313 94 125 216 245 260 268 269 269 279 294 292 277 172 146 146 154 150 136 136 136 132 137 142 147 158 158 150 152 154 145 141 141 140 138 137 139 139 140 140 137 136 139 144 146 138 136 139 142 139 135 136 129 121 122 113 107 146 180 252 236 173 179 184 196 197 168 184 214 185 194 236 253 223 241 269 287 295 304 345 244
292 254 261 272 208 200 291 309 197 242 274 250 237 268 283 298 314 356 134 190 251 276 276 282 287 285 340 273 240 169 158 163 157 146 138 137 136 132 134 135 139 149 150 148 153 154 145 142 144 144 141 138 140 143 143 142 139 138 143 149 149 143 141 141 138 135 130 124 122 121 124 127 104 101 141 245 216 183 206 210 217 208 165 172 209 228 228 241 286 259 233 261 267 280 290 327 19
310 309 309 302 326 20 319 316 183 223 259 278 272 283 297 307 311 331 75 183 281 303 302 313 317 339 20 237 213 179 164 162 154 146 139 134 133 136 138 137 138 141 144 147 154 154 145 144 148 146 141 139 143 145 142 141 137 137 144 149 153 145 136 137 131 125 122 117 120 128 131 123 101 104 126 207 206 201 231 237 225 203 170 161 172 201 231 240 277 267 243 256 254 259 269 270 284
314 316 314 316 332 7 20 271 255 238 245 275 295 305 317 314 315 7 27 27 18 344 331 324 325 341 305 214 194 177 164 150 149 147 139 134 137 144 147 143 144 145 146 150 153 151 144 144 148 144 141 142 144 143 141 138 134 137 144 150 158 140 133 140 124 117 121 127 135 134 132 128 114 107 107 171 210 222 246 251 219 194 181 183 176 170 192 216 263 267 255 247 249 250 251 253 268
313 309 311 326 324 360 76 204 250 248 245 280 310 304 314 317 334 21 36 41 40 4 325 307 313 313 225 197 176 163 157 143 143 143 138 137 142 148 148 144 149 148 150 156 154 149 144 146 147 143 144 146 146 147 144 140 140 143 144 149 153 131 135 139 117 120 143 144 138 128 122 135 142 129 98 191 204 225 246 278 227 193 201 202 187 175 180 194 248 272 270 248 250 252 249 252 252
299 301 311 323 324 2 43 256 261 292 264 283 311 292 352 349 351 12 26 39 360 301 289 287 270 222 205 177 158 145 139 138 135 133 137 139 140 144 141 145 153 150 154 161 156 150 147 148 148 145 148 149 150 153 147 142 145 148 147 151 146 133 149 146 127 142 152 134 123 117 115 111 155 140 134 175 189 215 223 284 277 197 237 259 180 166 174 175 244 263 262 261 260 255 246 264 267
290 290 305 311 338 11 352 276 225 252 268 102 328 302 51 348 321 335 346 313 269 282 266 270 201 180 182 158 149 134 129 137 137 132 139 138 134 138 142 149 155 151 155 158 152 148 147 150 149 146 149 150 152 154 148 143 145 150 153 155 147 146 167 150 133 148 137 126 124 121 125 195 236 141 137 168 183 202 202 210 238 201 239 289 333 275 179 174 222 220 220 244 276 283 277 275 297
293 305 318 302 265 282 280 265 229 255 288 85 65 1 49 314 299 297 312 278 262 258 231 243 154 150 158 153 149 138 134 140 141 139 140 138 132 136 143 149 155 152 150 152 150 148 148 150 148 147 149 149 153 152 145 144 148 150 149 153 150 148 153 135 131 144 130 127 134 129 131 199 273 189 156 164 164 180 194 189 209 219 237 274 316 291 223 222 234 214 212 221 223 254 290 304 307
321 340 323 326 308 232 170 120 272 279 347 82 75 14 327 312 301 278 309 250 258 257 217 174 89 124 146 149 144 138 141 142 145 146 142 142 140 139 141 141 147 147 143 151 154 150 149 150 148 147 148 150 152 149 146 148 151 149 148 158 152 126 127 131 134 138 130 140 151 144 138 169 302 320 153 148 134 164 193 200 207 213 222 234 252 256 253 253 239 217 213 210 206 206 200 232 268
323 29 302 328 332 317 115 137 197 215 39 148 110 41 306 302 296 287 11 242 256 263 163 95 88 100 119 133 135 135 140 140 142 145 142 142 140 138 137 139 142 142 145 156 156 151 151 151 148 146 147 151 151 149 154 157 153 152 154 160 144 130 143 151 150 153 156 158 154 149 142 148 297 20 148 151 90 135 183 214 220 214 218 227 241 252 266 284 266 232 225 211 207 212 207 207 222
318 6 350 329 329 328 336 69 184 355 51 165 170 129 220 292 301 319 330 309 322 47 88 93 94 85 96 118 127 134 139 138 137 140 142 140 137 137 141 146 146 140 144 154 157 154 152 151 147 147 148 149 148 152 160 159 155 156 160 156 144 152 170 161 154 164 172 155 145 146 144 142 202 244 175 179 120 126 166 191 217 225 236 222 234 252 268 290 282 258 257 232 204 203 201 193 210
320 357 348 323 320 318 317 350 40 360 60 136 202 256 119 282 321 18 293 278 59 77 93 96 84 86 105 113 112 127 135 138 136 139 144 144 142 145 145 150 152 146 142 149 155 153 153 152 146 147 150 148 149 154 156 156 155 157 159 156 154 166 170 146 142 135 126 139 142 147 149 151 181 192 202 190 157 151 164 167 198 215 246 237 227 246 268 285 289 297 318 341 356 15 180 57 16
321 345 335 313 309 306 309 337 35 326 54 126 208 238 82 21 318 8 256 189 112 101 95 86 76 78 97 117 123 131 134 137 138 139 143 143 142 146 146 148 154 152 142 140 150 152 150 150 146 148 150 146 148 151 151 156 161 163 165 163 162 168 157 142 145 124 116 134 142 147 157 168 174 171 208 216 153 138 155 166 176 190 225 250 226 230 245 251 273 297 313 326 337 341 337 349 355
318 328 319 308 296 290 327 1 322 314 314 285 163 176 142 40 19 360 258 151 116 116 98 75 81 59 133 163 149 140 136 135 135 136 139 139 137 142 145 146 150 152 142 136 148 150 146 149 149 147 145 143 147 151 155 162 168 172 179 171 163 164 151 148 166 158 147 154 149 151 166 173 174 174 203 231 184 162 181 190 188 183 193 224 252 253 246 228 239 276 296 311 323 325 325 320 313
317 319 314 317 302 274 88 72 310 319 296 330 80 138 165 82 42 20 106 139 134 127 112 100 60 9 157 155 145 132 132 132 129 131 135 137 134 134 140 142 143 148 143 133 137 141 145 151 148 143 144 149 155 159 160 163 167 175 185 177 165 171 161 159 178 170 168 178 160 154 173 187 196 184 184 209 205 191 191 194 242 228 183 189 231 276 298 274 243 260 276 286 295 298 298 294 293
305 313 316 324 321 289 210 177 209 307 300 338 95 108 101 76 49 32 98 118 126 121 120 130 82 65 100 124 127 122 127 128 124 128 134 136 136 134 138 143 145 146 143 133 132 138 143 143 140 142 145 150 158 162 162 164 169 176 186 186 177 184 177 170 179 176 185 193 160 153 173 188 201 178 169 183 214 202 177 158 227 246 152 152 189 252 271 260 259 255 261 264 264 269 265 265 269
315 316 324 335 335 305 283 163 136 46 9 34 101 90 71 76 58 35 69 100 116 123 116 116 94 78 92 104 111 118 123 124 123 129 134 138 145 141 140 145 148 148 145 138 138 143 140 131 135 144 149 155 161 164 168 173 180 183 187 193 189 191 197 188 181 179 193 203 158 152 172 179 175 170 169 185 212 218 200 177 184 201 217 171 187 231 248 254 273 255 252 258 252 256 252 252 255
344 354 347 350 333 327 346 17 65 58 39 47 95 106 81 84 62 34 42 90 112 123 115 110 105 98 100 103 110 120 122 129 136 135 137 151 154 144 145 149 148 148 146 143 144 147 142 134 136 141 148 163 168 169 175 181 192 200 197 198 196 196 209 206 195 186 191 202 172 156 170 177 173 182 197 206 213 217 201 180 165 178 226 224 177 187 239 258 280 242 249 255 246 257 263 263 267
5 8 339 329 327 345 349 351 43 49 55 45 47 85 50 43 84 73 53 87 106 116 110 109 112 112 110 106 111 118 123 135 143 142 146 156 154 145 149 151 149 151 149 146 149 147 141 143 149 150 151 162 171 173 176 180 199 214 209 203 200 201 213 212 210 203 191 197 190 171 171 174 175 187 200 208 214 210 195 181 166 174 201 193 171 179 227 237 226 213 239 248 239 243 244 246 254
15 334 304 314 312 69 323 290 42 44 58 51 36 60 64 67 93 100 96 97 115 123 115 109 116 124 126 119 115 117 119 129 136 138 138 140 144 146 147 147 149 152 149 148 154 149 142 146 155 161 161 165 172 176 177 184 202 217 211 206 206 206 212 214 212 208 199 199 198 189 180 175 179 192 202 203 204 205 194 187 191 200 198 191 186 193 216 225 217 201 210 248 253 248 241 245 243
335 308 330 327 311 143 221 283 145 61 53 49 43 86 103 98 92 97 106 111 118 126 126 119 119 125 119 116 127 129 130 142 135 126 123 130 145 149 145 142 141 142 143 151 158 153 153 161 163 165 173 176 175 178 184 190 205 220 214 209 210 209 213 220 214 206 203 201 200 204 192 182 184 193 203 205 199 212 214 206 222 231 207 202 200 204 218 224 216 204 203 239 261 260 262 278 282
305 335 340 325 318 132 164 285 318 68 66 58 59 77 93 113 91 100 113 118 121 126 132 131 129 133 107 91 95 105 118 138 135 122 127 138 146 145 141 135 131 130 136 147 155 155 161 174 174 169 178 185 179 183 193 199 214 224 219 213 213 213 217 224 217 210 206 196 196 205 196 194 200 198 210 220 210 221 235 235 251 267 251 237 231 224 228 234 232 229 229 235 248 253 256 269 277
274 334 335 323 338 5 316 320 347 53 88 92 77 72 68 67 77 100 110 119 130 129 131 135 135 134 118 97 75 77 102 123 126 129 143 147 145 143 135 126 126 131 138 143 151 158 159 169 178 176 183 188 183 188 199 211 221 222 220 218 215 215 220 225 222 215 206 194 196 200 196 203 214 216 221 226 223 228 235 239 250 262 260 251 247 242 242 245 247 245 241 236 243 253 257 260 257
305 328 338 338 350 336 329 341 345 336 108 114 99 75 55 51 59 92 111 125 138 136 133 142 139 123 110 108 103 100 111 122 134 145 145 138 136 137 130 127 133 145 152 149 152 170 172 170 176 178 180 184 186 195 203 212 217 216 217 217 218 220 220 226 231 219 199 194 200 196 199 205 208 216 219 216 219 226 234 244 249 255 257 250 250 251 249 253 254 254 255 251 250 255 257 261 259
358 359 356 345 350 350 338 358 72 291 299 104 103 89 60 25 33 83 107 123 132 134 136 146 138 122 117 121 113 115 127 133 147 142 125 116 109 112 119 123 134 156 161 151 150 168 173 165 170 174 173 176 184 196 203 207 211 213 215 217 225 227 220 231 242 224 193 192 199 190 198 200 204 220 225 222 226 226 231 244 250 253 255 255 261 259 255 260 260 257 261 261 258 258 260 265 265
3 15 356 333 341 6 345 19 75 58 356 50 103 103 83 328 3 85 98 110 116 122 129 128 115 112 118 128 120 111 107 113 121 110 103 103 92 92 105 105 109 131 144 140 144 153 149 146 167 178 175 182 188 188 192 202 208 213 217 224 234 231 226 246 248 211 182 204 211 217 221 203 209 225 232 237 241 240 242 250 259 263 261 264 275 271 261 260 260 260 264 267 269 270 269 272 270
Height
754 754 753 754 751 751 749 747 761 756 754 762 748 742 732 714 710 708 705 696 691 679 668 674 672 672 684 687 691 704 709 712 715 723 740 736 724 728 727 728 733 736 740 742 745 748 751 753 754 756 758 759 762 763 765 767 769 770 771 773 775 777 778 779 780 781 783 785 786 787 788 789 790 791 792 792 793 794 795 795 795 795 795 795 795 795 795 796 796 796 796 796 796 796 796 795 795
754 754 752 753 750 752 749 744 764 759 755 763 745 736 725 708 708 707 704 697 688 675 668 675 678 678 681 682 683 698 715 715 712 719 727 725 728 731 728 730 732 736 740 742 746 748 751 753 754 757 758 760 762 764 766 768 770 770 772 774 776 777 779 780 781 782 784 786 787 788 789 790 791 792 793 794 795 795 796 796 796 797 797 796 797 796 796 797 797 798 797 797 798 798 797 797 796
753 753 750 751 748 749 748 746 763 762 758 757 739 723 713 712 708 700 693 685 678 669 673 680 685 684 685 694 691 703 723 719 713 718 722 725 729 731 730 731 732 737 740 743 746 748 751 753 755 757 758 761 763 765 767 769 770 771 773 775 777 778 780 781 782 783 785 787 788 789 790 791 793 793 794 795 796 796 797 798 798 798 798 798 798 798 798 798 798 799 799 799 799 799 798 798 797
752 752 750 748 748 749 752 754 758 758 758 748 735 714 702 705 698 695 685 672 672 674 680 687 694 688 691 705 696 704 724 720 717 718 722 724 727 730 731 731 734 737 740 744 746 748 751 753 755 757 759 762 763 766 767 769 771 772 774 776 777 779 781 782 783 785 786 787 789 790 791 793 793 794 795 796 797 797 798 799 799 799 799 799 799 799 799 799 800 800 800 800 800 800 800 799 798
752 752 749 747 750 749 749 753 749 752 752 740 732 713 698 694 687 692 685 673 675 684 688 693 702 691 692 703 698 714 725 720 718 716 721 723 725 730 730 732 735 738 741 744 746 749 750 753 755 757 760 762 764 766 768 770 772 773 775 776 778 780 782 783 784 785 787 789 790 792 793 794 795 796 796 797 798 799 800 800 800 800 800 800 800 800 800 801 801 801 802 802 802 802 801 800 799
751 750 746 745 746 742 748 754 749 747 737 728 728 714 699 692 689 695 691 684 681 687 692 697 704 698 705 710 707 718 720 719 721 717 721 723 725 728 730 732 735 739 742 744 747 749 750 753 755 758 760 762 765 767 769 771 772 774 776 777 779 781 783 784 785 787 788 790 791 793 794 795 796 797 797 798 799 800 801 801 801 801 801 801 801 801 802 802 802 803 803 803 803 803 803 802 801
750 749 745 747 746 743 756 757 747 740 725 717 719 712 702 694 691 696 698 697 691 690 696 701 702 705 714 714 716 720 715 718 718 718 722 723 725 726 729 731 734 739 741 744 747 748 751 753 755 758 760 763 765 768 770 772 773 775 776 778 780 782 784 785 786 788 789 791 792 794 795 796 797 798 799 799 800 801 802 802 802 802 802 802 802 803 803 803 804 804 804 805 805 805 804 803 802
748 748 743 749 752 747 755 752 742 735 722 711 707 702 700 696 695 700 703 704 702 698 699 700 700 713 715 708 723 725 717 719 717 720 722 723 725 725 729 730 733 737 741 744 746 749 751 754 756 759 761 764 766 768 771 772 774 776 778 779 781 783 784 786 787 789 790 792 793 795 796 797 798 799 800 800 801 802 803 803 803 803 803 804 804 804 804 804 805 805 806 806 806 806 805 804 804
744 746 744 749 753 749 749 746 737 729 720 712 706 699 695 693 696 705 708 705 704 703 702 698 700 715 715 712 728 725 719 722 720 722 722 724 725 725 728 729 733 736 740 744 747 750 752 755 757 759 762 764 767 769 771 773 775 777 779 780 782 784 785 787 788 790 791 793 795 796 797 798 799 800 801 802 802 803 804 804 804 805 804 805 805 805 805 806 806 807 807 808 808 808 807 806 805
742 744 746 749 752 753 749 741 732 723 714 707 703 699 694 690 693 703 708 709 707 707 702 696 703 713 715 722 730 724 723 723 721 725 724 726 727 728 730 731 734 736 741 744 748 751 754 757 758 761 763 765 768 770 772 774 776 778 780 781 783 784 786 788 789 791 792 794 795 797 798 799 800 801 802 803 803 804 805 805 805 806 806 806 806 806 807 807 808 808 809 809 809 809 808 808 807
746 741 742 752 755 756 750 738 727 717 704 697 697 696 693 690 697 704 706 710 710 710 705 701 709 712 715 726 731 725 724 724 724 726 726 729 732 735 737 738 738 739 744 747 751 754 757 759 761 763 765 767 769 771 774 775 777 779 781 782 784 785 787 788 790 792 793 795 796 798 799 800 801 802 803 804 804 805 806 806 807 807 807 807 807 808 808 809 809 810 810 810 811 811 810 809 808
750 744 742 755 755 749 742 734 725 715 704 701 705 703 697 695 704 711 711 714 714 717 713 709 711 713 721 729 731 725 723 725 725 727 728 731 734 737 742 743 743 745 749 752 755 757 760 762 763 766 767 769 771 773 775 776 778 780 782 783 784 786 788 790 791 793 794 796 797 799 800 801 802 803 804 805 805 806 807 808 808 808 808 809 809 809 810 810 811 811 812 812 812 812 812 811 810
748 744 743 751 745 738 735 732 727 720 714 710 712 709 704 706 712 716 717 718 720 724 719 711 710 717 731 733 731 727 725 727 726 728 729 732 735 738 743 744 746 750 752 754 757 760 763 764 765 768 769 771 772 774 776 778 780 781 783 784 785 787 789 791 792 794 795 797 798 799 800 801 803 804 805 805 806 807 808 809 809 809 810 810 810 810 811 811 812 812 813 813 813 813 813 813 812
741 739 742 748 740 736 735 733 728 724 722 715 713 712 712 715 716 716 721 725 725 724 718 709 710 724 735 735 736 731 729 729 727 729 731 734 736 740 746 746 747 750 753 755 757 761 764 766 768 769 771 773 774 775 777 779 781 782 784 785 787 788 790 792 793 795 796 798 799 800 801 802 803 804 806 806 807 808 809 810 810 811 811 811 811 812 812 813 813 814 814 814 814 815 815 814 814
739 737 741 748 744 741 735 730 727 725 724 718 717 718 720 720 717 720 726 732 730 720 715 711 712 727 733 735 739 732 730 731 729 731 733 735 738 743 747 749 751 751 754 756 757 762 765 767 769 771 772 774 775 777 779 780 782 784 785 786 788 789 791 793 795 796 797 799 799 801 802 803 804 805 806 807 808 809 810 811 811 812 812 812 813 813 813 814 814 815 815 815 816 816 816 816 815
735 738 745 751 749 744 734 728 729 730 726 721 721 722 727 725 721 727 729 732 732 722 720 720 718 725 729 733 735 729 729 732 731 733 734 737 742 745 747 751 754 753 754 757 758 761 764 767 769 772 774 775 776 778 780 781 784 785 786 788 789 790 792 794 796 797 798 800 800 801 803 803 805 806 807 808 809 810 811 811 812 812 813 813 814 814 814 815 815 816 816 817 817 817 817 817 817
733 741 751 754 747 739 732 731 735 735 728 723 724 726 733 731 726 729 728 729 734 730 727 727 724 724 727 729 728 726 728 731 733 735 736 740 746 749 750 752 754 754 755 757 759 760 763 767 770 773 775 776 778 778 781 783 785 786 787 789 790 792 793 795 797 798 799 800 802 802 803 805 806 807 808 809 810 811 811 812 813 813 814 815 815 815 816 816 817 817 817 818 818 818 818 818 818
739 746 752 752 743 733 730 732 732 730 730 727 725 728 735 736 732 731 731 734 736 736 732 729 727 725 730 730 726 725 727 730 733 735 738 742 748 750 749 751 753 754 755 756 759 761 764 766 770 774 776 778 779 780 782 783 785 787 788 790 791 793 794 796 797 799 800 801 803 803 804 806 806 808 809 809 810 811 812 813 814 814 815 816 816 817 817 817 818 818 818 819 819 818 818 818 818
742 745 748 746 735 727 725 728 726 725 729 729 727 728 734 737 736 736 740 741 739 741 738 734 731 729 734 736 733 730 726 729 732 734 737 742 748 748 748 750 751 752 753 755 758 760 764 766 770 774 776 779 780 781 783 784 786 787 789 791 792 794 795 797 798 800 801 802 803 804 805 806 807 809 809 810 811 812 813 813 814 815 816 817 817 818 818 818 818 819 819 819 819 819 818 818 819
736 737 746 741 729 726 724 724 723 722 725 729 732 730 733 737 737 740 743 745 742 743 741 738 737 733 734 736 738 737 732 730 730 734 737 741 747 747 749 751 750 750 752 754 756 759 762 765 770 774 776 779 781 783 784 785 787 789 790 792 793 794 796 797 799 800 801 802 803 804 806 807 808 809 810 811 811 812 813 814 815 816 817 818 818 818 819 819 819 820 820 820 820 819 819 819 821
729 734 743 735 727 730 725 722 723 724 726 729 732 732 736 737 738 741 744 748 746 741 738 737 738 735 735 735 736 738 739 736 730 732 736 738 745 748 749 750 750 751 752 754 756 759 761 764 769 773 776 779 781 783 785 787 788 790 791 793 794 795 796 798 799 800 802 803 804 805 806 807 808 809 811 811 812 813 813 815 816 817 818 818 819 819 820 820 820 820 820 820 820 819 820 821 822
730 734 735 729 727 731 726 722 724 726 729 731 734 738 741 739 738 740 743 749 745 737 733 732 733 733 735 736 736 736 741 743 733 730 735 738 744 748 750 750 751 752 754 756 757 759 762 766 770 772 776 778 781 784 786 787 788 790 792 794 795 796 797 798 799 801 802 804 804 806 806 807 808 809 811 811 812 813 813 815 816 817 819 819 820 820 821 821 821 821 821 821 820 820 821 822 822
735 734 729 727 727 729 726 724 726 726 729 733 734 738 743 743 740 738 740 742 737 732 730 729 729 730 733 735 737 736 738 744 737 731 735 739 744 748 749 749 750 754 756 758 759 761 763 766 771 773 775 778 781 784 786 788 789 791 792 794 795 796 797 798 800 801 802 804 804 806 807 807 808 809 811 812 813 813 814 814 816 817 818 820 821 821 821 821 821 821 821 821 821 822 822 822 822
735 736 731 728 725 727 726 725 726 727 730 730 729 733 740 743 739 735 736 735 731 729 726 726 727 729 733 734 736 736 735 740 738 733 737 740 743 747 749 749 751 755 758 760 761 762 764 768 772 773 776 778 781 784 786 787 789 791 792 794 795 796 797 798 800 801 803 804 805 806 807 808 809 809 810 812 813 813 814 814 816 817 818 819 821 821 822 821 822 822 822 821 822 822 822 823 823
734 735 731 726 726 725 725 727 728 729 730 729 729 734 735 734 732 732 732 730 727 725 724 726 728 730 733 734 734 734 735 741 740 735 737 740 741 746 749 749 752 758 759 762 763 764 766 769 772 774 776 778 781 784 785 787 789 791 793 794 795 796 797 799 800 801 803 804 805 806 807 808 809 809 810 812 813 813 814 815 816 817 817 818 820 822 822 822 822 823 823 822 822 823 822 824 823
733 731 729 727 727 725 726 729 729 730 731 731 733 734 732 727 728 731 728 727 725 723 726 728 729 731 732 733 733 734 737 742 742 737 735 739 741 745 747 746 753 761 762 764 766 767 769 771 773 775 776 778 781 783 785 787 789 791 793 794 795 797 798 799 800 802 803 805 806 807 808 808 809 810 811 812 813 813 814 815 816 817 817 818 820 821 822 822 822 822 822 822 822 822 823 824 824
729 728 727 726 727 726 728 729 729 731 731 732 735 735 730 725 730 733 726 724 726 726 729 729 729 731 731 731 732 734 736 739 741 738 736 738 740 743 745 743 751 762 765 767 768 769 772 773 774 775 776 778 780 783 785 787 790 792 793 795 796 797 798 799 801 802 803 805 806 807 807 808 809 809 811 812 813 814 814 815 816 817 817 818 820 820 822 822 822 822 823 823 823 823 823 824 824
726 726 728 727 727 728 729 730 731 732 732 732 734 736 731 727 730 730 724 724 726 727 729 729 730 730 728 729 731 734 734 737 740 738 736 738 740 743 744 742 749 762 768 769 770 771 773 774 775 776 776 778 781 783 786 788 791 792 794 795 796 798 799 800 801 802 804 805 806 807 808 808 809 809 811 812 812 814 815 815 816 817 818 818 820 820 821 822 822 823 823 823 823 823 823 824 824
726 727 734 734 731 732 730 731 732 732 735 733 736 740 734 728 728 723 721 725 726 728 729 729 729 727 727 728 730 732 735 738 740 737 736 739 743 746 746 742 748 762 770 772 772 772 773 775 776 776 777 779 781 784 787 790 791 793 794 796 798 799 800 801 801 803 804 806 807 808 809 809 809 810 811 812 812 814 815 815 816 817 818 818 820 821 821 822 823 823 823 824 824 824 824 824 824
730 733 740 743 743 739 732 734 733 734 736 734 740 746 733 725 725 721 722 726 727 729 728 727 726 725 726 728 730 732 735 740 739 737 736 737 742 748 746 743 749 763 771 772 773 773 774 775 776 777 778 780 782 786 788 790 792 793 795 797 799 799 800 801 802 804 805 807 808 809 809 810 810 811 812 812 813 814 814 815 816 817 818 818 819 821 822 823 823 823 824 824 824 824 824 824 825
737 742 745 748 755 747 736 739 740 741 739 733 743 747 735 727 724 722 724 726 728 730 727 725 725 725 727 729 731 733 736 741 739 735 734 735 740 745 746 744 748 763 772 773 773 774 774 775 777 777 779 781 784 787 789 791 793 794 796 798 799 800 800 801 803 804 806 807 808 809 810 810 811 811 811 812 813 813 814 815 816 817 818 819 819 820 822 823 823 824 824 825 825 825 825 825 825
739 750 751 748 756 751 741 742 744 746 740 733 743 745 736 731 725 722 724 726 728 730 728 726 726 726 729 731 731 735 741 743 738 735 734 738 741 744 747 747 747 758 768 772 774 775 775 776 777 779 780 783 785 788 790 792 793 795 798 799 799 800 801 802 803 804 805 807 808 809 810 811 811 812 811 812 813 813 814 815 816 817 818 819 820 820 822 823 823 824 824 825 825 825 825 826 826
747 752 753 746 752 754 746 742 740 740 739 736 741 741 737 732 724 722 725 726 729 731 729 728 728 728 732 735 732 736 744 743 737 735 736 739 742 744 749 752 752 755 761 767 773 774 775 776 778 780 781 784 786 789 791 793 795 796 798 799 799 800 801 802 803 804 806 807 808 809 810 811 812 812 812 812 813 813 814 815 816 817 818 819 820 821 822 823 823 824 825 825 825 825 826 827 826
752 745 743 738 743 751 747 743 737 734 739 739 739 739 735 728 722 721 724 727 730 732 731 730 730 732 736 736 733 738 744 741 737 736 737 738 742 746 751 756 758 761 761 763 770 774 775 777 779 780 782 785 787 789 791 793 795 797 798 799 799 800 801 802 803 804 806 806 807 809 810 812 812 812 813 813 813 814 814 815 816 817 818 819 820 821 822 823 823 824 825 825 826 825 826 826 826
746 739 738 734 735 746 749 744 737 734 741 741 739 739 733 726 721 721 723 726 730 731 730 731 731 735 738 737 735 739 740 738 737 736 737 740 744 749 754 756 759 764 765 764 769 773 775 777 779 781 783 785 788 790 792 794 795 797 799 799 799 800 801 802 803 804 805 806 808 810 810 812 812 813 813 813 813 814 814 815 816 817 817 819 820 821 823 823 823 824 824 825 826 826 826 826 826
736 733 735 735 736 745 749 746 737 733 740 741 739 739 734 729 723 721 724 725 729 731 730 730 732 735 738 739 738 738 737 736 737 737 739 743 746 752 756 757 758 762 766 767 769 772 775 778 779 781 783 786 788 790 792 794 796 798 798 799 799 800 801 802 803 804 806 807 808 809 811 812 812 813 814 814 814 814 814 815 816 817 818 819 820 821 822 823 823 824 825 825 825 826 826 826 826
734 732 732 734 738 744 747 748 736 729 739 741 737 738 736 732 726 725 727 728 731 735 735 732 733 738 740 740 738 736 737 736 736 738 741 744 747 753 758 759 760 762 765 768 770 772 775 778 779 781 784 786 788 790 792 794 796 797 798 799 799 800 801 802 803 805 806 807 808 809 810 812 812 812 814 814 814 814 814 815 815 816 817 818 819 820 821 822 823 824 824 825 825 826 826 826 826
734 732 734 736 738 744 748 748 736 729 739 741 737 739 740 737 733 730 730 733 735 737 738 736 737 742 741 738 735 734 736 736 737 739 741 745 749 753 758 760 761 762 765 769 771 773 776 778 780 781 784 787 789 791 792 794 796 797 798 798 799 800 801 802 803 805 806 807 808 809 810 812 812 812 813 814 814 814 814 815 815 816 817 818 819 820 821 822 822 823 824 825 825 826 825 826 826
734 729 733 740 743 750 751 745 737 733 739 742 739 741 745 742 736 734 734 735 736 734 736 737 740 742 739 736 735 733 736 738 739 740 741 745 749 753 759 761 762 764 766 769 771 774 776 779 780 782 784 787 789 791 792 794 796 797 798 798 800 801 801 802 803 804 806 807 809 810 810 812 812 811 812 813 814 814 815 815 816 816 817 818 818 819 820 821 822 823 824 824 825 825 825 825 826
734 730 733 741 746 758 758 746 740 735 735 740 741 743 746 742 738 737 736 734 733 733 735 735 736 738 736 735 733 732 735 737 739 740 741 745 748 753 759 762 763 765 768 770 772 774 777 779 781 782 785 787 789 791 792 794 796 797 798 798 800 800 801 802 803 805 805 807 809 810 811 812 812 812 812 813 814 814 815 816 816 817 817 818 818 819 820 820 821 821 822 823 823 824 824 825 825
731 730 734 737 738 748 752 748 746 742 739 739 743 753 752 745 745 741 735 736 735 732 730 729 731 734 734 733 731 730 732 735 738 740 742 744 747 751 757 761 763 765 769 772 773 775 777 779 781 783 785 787 789 790 792 794 795 797 798 798 800 800 801 802 803 805 805 807 808 810 811 812 812 812 812 813 814 815 815 816 816 817 817 818 818 819 819 820 820 820 821 821 822 822 823 824 825
732 729 728 728 727 730 735 744 750 752 752 745 746 765 764 749 748 744 738 739 737 731 729 728 728 729 730 732 730 729 731 734 737 740 742 744 747 751 755 759 761 764 768 773 774 775 778 780 781 783 785 787 789 790 792 794 795 796 798 798 800 800 801 802 803 804 805 806 807 809 810 812 812 812 813 814 814 815 816 816 816 816 817 817 818 818 819 819 819 820 820 820 820 820 821 823 824
738 727 721 722 723 724 727 735 747 754 755 746 744 761 767 755 750 746 742 742 739 733 732 730 728 727 728 731 731 730 732 735 738 741 743 746 748 751 755 758 761 764 767 771 774 776 778 780 781 783 785 787 789 790 792 794 795 797 798 799 800 801 802 803 803 804 805 805 807 808 809 811 813 813 813 814 814 815 816 816 816 816 816 817 818 818 818 818 818 819 819 820 820 820 821 822 823
738 722 720 723 722 725 724 728 744 751 749 748 745 749 760 761 753 747 745 745 744 742 738 734 730 729 730 731 732 732 733 735 739 742 745 747 750 752 756 759 762 765 768 771 774 776 778 779 781 783 785 787 789 791 793 795 796 797 799 800 801 802 802 803 804 804 805 806 807 808 809 811 812 813 814 813 814 815 816 816 816 816 816 817 818 818 819 818 817 817 818 819 819 820 821 822 822
731 719 721 722 720 722 720 724 739 743 746 757 753 745 757 764 753 746 747 747 749 747 742 737 733 733 734 735 735 735 735 737 740 744 747 749 752 754 757 761 763 765 768 771 772 775 777 779 781 783 785 787 789 791 794 796 798 798 799 800 801 802 803 803 804 805 806 806 807 808 809 810 812 813 814 814 814 815 816 816 816 817 817 817 818 818 819 818 817 817 818 819 818 819 820 821 822
724 719 720 718 716 717 721 732 737 736 745 754 749 746 757 766 758 751 752 751 752 749 743 739 738 739 739 738 738 737 738 741 743 747 750 753 755 757 760 763 764 766 768 770 773 775 777 779 781 783 785 787 789 792 794 796 798 799 799 800 801 802 803 804 805 806 806 806 807 808 809 810 811 813 814 814 815 815 815 816 816 816 817 817 817 818 818 818 818 818 818 818 818 819 819 820 821
720 721 722 720 717 714 724 737 736 742 752 745 741 743 749 762 763 755 752 751 748 746 745 745 743 741 740 738 740 741 741 744 747 751 753 756 758 759 762 764 765 767 768 770 773 775 777 779 781 783 785 787 790 792 794 795 797 799 799 800 801 802 803 804 805 805 805 806 806 808 809 810 811 812 814 814 815 815 815 816 815 815 816 816 817 817 817 818 818 818 818 818 819 819 820 820 821
720 725 726 729 733 728 731 738 739 754 757 740 737 738 740 759 765 753 749 747 743 743 746 748 746 742 741 741 742 743 745 748 750 754 756 757 760 761 763 765 766 768 769 770 773 775 777 779 781 783 786 788 790 792 794 796 797 799 799 799 800 801 802 804 805 805 805 804 805 807 809 810 811 812 814 814 815 815 815 815 816 816 816 816 817 818 818 818 818 818 818 818 819 819 820 820 821
722 726 729 742 755 751 744 741 745 756 749 734 733 736 744 760 761 752 749 745 741 740 740 743 745 745 744 745 746 746 747 751 753 756 758 760 761 762 764 766 768 769 770 771 774 776 778 780 782 784 786 788 790 793 795 797 798 799 799 800 800 801 802 804 804 804 805 804 805 806 808 810 811 812 813 814 815 814 814 815 815 816 816 816 817 817 818 818 818 818 818 818 818 819 819 819 820
728 732 741 755 762 763 756 744 747 754 744 730 724 732 752 762 758 755 751 744 739 737 736 739 742 746 747 748 749 750 750 754 756 757 760 763 763 763 765 767 769 770 771 773 775 777 779 781 783 784 786 789 791 793 795 797 798 799 799 799 800 801 802 803 803 804 804 805 805 806 807 809 810 812 813 813 814 813 814 814 815 815 816 816 816 817 817 817 817 817 817 818 818 818 819 819 819
732 730 738 752 754 762 766 758 761 756 739 730 726 737 758 763 759 757 750 743 739 737 738 739 742 746 749 750 751 752 753 754 756 757 760 763 762 763 765 767 769 770 772 774 776 778 780 782 783 784 787 789 791 792 794 796 797 798 798 799 800 801 802 803 803 803 804 804 805 806 807 808 810 811 812 812 813 813 813 813 814 814 814 815 815 816 816 816 816 817 817 817 818 818 818 818 818
735 727 735 745 740 749 759 753 751 743 737 742 743 750 757 752 752 753 749 748 743 741 742 741 744 746 749 754 754 754 755 754 754 756 758 761 762 764 765 767 769 770 773 775 777 779 781 782 784 785 787 789 791 792 794 795 796 797 798 799 800 801 802 802 802 803 804 804 805 806 807 808 809 811 811 812 812 812 813 813 813 813 813 814 814 814 815 815 815 816 816 816 817 817 817 817 817
736 732 735 729 715 731 752 745 730 729 748 760 752 755 757 752 754 753 751 753 747 746 748 746 747 746 747 754 754 755 759 758 756 755 757 761 763 764 765 766 769 770 773 775 777 780 781 783 784 786 788 789 791 792 793 794 795 797 799 799 800 801 802 802 802 803 804 804 805 806 807 808 810 811 811 812 812 812 812 812 812 812 812 813 813 814 814 814 814 814 815 816 816 816 816 816 817
734 736 727 716 714 725 740 745 736 736 757 765 753 754 759 758 761 757 755 759 755 752 753 752 752 750 749 751 751 754 758 759 757 756 758 761 762 764 765 767 770 771 774 776 778 780 782 784 785 786 787 789 790 791 791 792 794 797 799 799 800 801 802 802 803 803 804 804 805 806 807 809 810 811 811 811 812 812 812 812 812 812 812 812 813 813 813 813 814 814 814 815 815 815 816 816 816
724 728 715 720 740 743 738 744 750 750 758 765 757 753 755 758 759 759 760 762 760 757 757 757 756 754 755 755 753 754 755 756 757 759 761 762 763 765 766 769 771 773 776 777 778 781 782 784 786 787 788 789 790 790 791 792 794 797 798 799 800 801 801 802 803 803 804 804 805 806 808 810 810 811 811 811 812 812 812 812 812 812 812 812 812 812 812 813 813 813 813 814 814 815 815 815 815
717 721 717 720 734 741 735 734 746 753 753 758 761 759 762 761 754 754 757 758 759 760 760 761 759 758 759 757 756 756 757 758 759 760 762 763 764 766 768 771 773 775 777 778 780 782 783 785 787 788 789 789 790 791 792 793 795 797 798 799 800 801 801 802 803 803 803 804 805 807 808 809 810 810 811 811 811 811 811 811 811 811 811 811 812 811 812 812 812 812 812 813 814 814 814 814 814
728 732 735 732 728 732 732 728 739 750 746 749 761 771 773 761 748 749 752 752 755 757 759 761 759 760 761 758 757 758 758 759 759 760 763 764 765 767 770 774 776 777 778 780 781 782 783 785 786 787 789 790 791 792 793 794 795 797 798 798 800 802 802 802 804 804 803 804 805 807 808 809 809 809 809 810 810 809 809 810 810 810 810 811 811 811 811 811 811 811 811 812 813 813 813 813 814
731 737 741 740 735 740 749 743 736 739 746 749 757 774 778 758 746 750 751 750 752 753 757 757 756 759 761 759 759 759 758 759 760 762 764 766 767 769 771 775 777 778 778 779 781 781 782 785 787 787 788 789 791 792 793 794 795 797 798 799 801 802 803 804 806 805 804 805 805 806 808 808 808 808 808 809 809 808 808 809 809 809 809 809 810 810 810 810 810 810 810 811 812 812 812 812 813